• In Czech Republic
  • List of Countries
  • For 7 days
  • Water Temperature
  • Satellite Maps
  • Weather Map
  • Weather Widgets
  • user-avatar
    Login

    Hourly Weather Solden

    Today, 26 September, Wednesday

    Time Temperature Precipitation Wind Pressure Humidity
    00:00 -1°C° 0 mm 1 mps 591 mmHg 64%
    01:00 -2°C° 0 mm 1 mps 591 mmHg 55%
    02:00 -2°C° 0 mm 1 mps 591 mmHg 56%
    03:00 -2°C° 0 mm 1 mps 591 mmHg 56%
    04:00 -2°C° 0 mm 1 mps 591 mmHg 57%
    05:00 -1°C° 0 mm 1 mps 591 mmHg 55%
    06:00 0°C° 0 mm 1 mps 592 mmHg 53%
    07:00 0°C° 0 mm 1 mps 592 mmHg 52%
    08:00 +3°C° 0 mm 1 mps 593 mmHg 44%
    09:00 +6°C° 0 mm 1 mps 595 mmHg 36%
    10:00 +9°C° 0 mm 1 mps 596 mmHg 28%
    11:00 +11°C° 0 mm 1 mps 596 mmHg 27%
    12:00 +12°C° 0 mm 1 mps 597 mmHg 26%
    13:00 +13°C° 0 mm 2 mps 597 mmHg 25%
    14:00 +13°C° 0 mm 2 mps 597 mmHg 29%
    15:00 +12°C° 0 mm 2 mps 596 mmHg 32%
    16:00 +12°C° 0 mm 2 mps 596 mmHg 36%
    17:00 +8°C° 0 mm 2 mps 595 mmHg 47%
    18:00 +6°C° 0 mm 1 mps 593 mmHg 59%
    19:00 +3°C° 0 mm 1 mps 592 mmHg 70%
    20:00 +3°C° 0 mm 1 mps 592 mmHg 67%
    21:00 +3°C° 0 mm 1 mps 592 mmHg 63%
    22:00 +3°C° 0 mm 1 mps 592 mmHg 59%
    23:00 +3°C° 0 mm 1 mps 592 mmHg 55%

    Tomorrow, 27 September, Thursday

    Time Temperature Precipitation Wind Pressure Humidity
    00:00 +3°C° 0 mm 1 mps 592 mmHg 51%
    01:00 +2°C° 0 mm 1 mps 592 mmHg 47%
    02:00 +2°C° 0 mm 1 mps 591 mmHg 44%
    03:00 +2°C° 0 mm 1 mps 591 mmHg 40%
    04:00 +2°C° 0 mm 1 mps 591 mmHg 37%
    05:00 +3°C° 0 mm 1 mps 591 mmHg 37%
    06:00 +3°C° 0 mm 1 mps 591 mmHg 38%
    07:00 +4°C° 0 mm 1 mps 591 mmHg 38%
    08:00 +7°C° 0 mm 1 mps 593 mmHg 33%
    09:00 +11°C° 0 mm 1 mps 594 mmHg 28%
    10:00 +14°C° 0 mm 1 mps 596 mmHg 24%
    11:00 +15°C° 0 mm 1 mps 596 mmHg 24%
    12:00 +15°C° 0 mm 1 mps 596 mmHg 25%
    13:00 +16°C° 0 mm 1 mps 596 mmHg 25%
    14:00 +16°C° 0 mm 1 mps 595 mmHg 29%
    15:00 +15°C° 0 mm 1 mps 595 mmHg 33%
    16:00 +14°C° 0 mm 2 mps 594 mmHg 36%
    17:00 +11°C° 0 mm 1 mps 592 mmHg 48%
    18:00 +8°C° 0 mm 1 mps 590 mmHg 60%
    19:00 +4°C° 0 mm 0 mps 589 mmHg 72%
    20:00 +5°C° 0 mm 1 mps 589 mmHg 72%
    21:00 +4°C° 0 mm 1 mps 588 mmHg 72%
    22:00 +4°C° 0 mm 1 mps 588 mmHg 73%
    23:00 +4°C° 0 mm 1 mps 588 mmHg 72%

    Day after tomorrow, 28 September, Friday

    Time Temperature Precipitation Wind Pressure Humidity
    00:00 +4°C° 0 mm 1 mps 587 mmHg 71%
    01:00 +4°C° 0 mm 1 mps 587 mmHg 70%
    02:00 +4°C° 0 mm 1 mps 587 mmHg 69%
    03:00 +4°C° 0 mm 1 mps 586 mmHg 67%
    04:00 +3°C° 0 mm 1 mps 586 mmHg 66%
    05:00 +4°C° 0 mm 1 mps 586 mmHg 64%
    06:00 +4°C° 0 mm 1 mps 586 mmHg 61%
    07:00 +4°C° 0 mm 1 mps 586 mmHg 59%
    08:00 +8°C° 0 mm 1 mps 587 mmHg 51%
    09:00 +11°C° 0 mm 1 mps 588 mmHg 42%
    10:00 +14°C° 0 mm 1 mps 590 mmHg 33%
    11:00 +15°C° 0 mm 1 mps 590 mmHg 32%
    12:00 +15°C° 0 mm 1 mps 590 mmHg 32%
    13:00 +16°C° 0 mm 1 mps 590 mmHg 31%
    14:00 +15°C° 0 mm 1 mps 589 mmHg 34%
    15:00 +15°C° 0 mm 2 mps 588 mmHg 37%
    16:00 +14°C° 0 mm 2 mps 588 mmHg 41%
    17:00 +10°C° 0 mm 2 mps 587 mmHg 53%
    18:00 +9°C° 0 mm 1 mps 585 mmHg 65%
    19:00 +6°C° 0 mm 1 mps 584 mmHg 78%
    20:00 +5°C° 0 mm 1 mps 584 mmHg 80%
    21:00 +5°C° 0 mm 1 mps 585 mmHg 82%
    22:00 +4°C° 0 mm 2 mps 585 mmHg 84%
    23:00 +4°C° 0 mm 2 mps 585 mmHg 85%

    29 September, Saturday

    Time Temperature Precipitation Wind Pressure Humidity
    00:00 +4°C° 0 mm 2 mps 585 mmHg 86%
    01:00 +3°C° 0 mm 2 mps 584 mmHg 87%
    02:00 +3°C° 0 mm 2 mps 584 mmHg 87%
    03:00 +3°C° 0 mm 2 mps 584 mmHg 87%
    04:00 +3°C° 0 mm 2 mps 584 mmHg 88%
    05:00 +3°C° 0 mm 2 mps 584 mmHg 88%
    06:00 +3°C° 0 mm 2 mps 584 mmHg 87%
    07:00 +3°C° 0 mm 2 mps 584 mmHg 87%
    08:00 +4°C° 0 mm 2 mps 585 mmHg 79%
    09:00 +6°C° 0 mm 2 mps 587 mmHg 70%
    10:00 +8°C° 0 mm 2 mps 588 mmHg 62%
    11:00 +9°C° 0 mm 1 mps 588 mmHg 59%
    12:00 +10°C° 0 mm 1 mps 588 mmHg 55%
    13:00 +11°C° 0 mm 1 mps 588 mmHg 52%
    14:00 +11°C° 0 mm 1 mps 588 mmHg 54%
    15:00 +9°C° 0 mm 2 mps 588 mmHg 56%
    16:00 +9°C° 0 mm 2 mps 588 mmHg 58%
    17:00 +8°C° 0 mm 1 mps 587 mmHg 68%
    18:00 +6°C° 0 mm 1 mps 586 mmHg 77%
    19:00 +4°C° 0 mm 1 mps 586 mmHg 87%
    20:00 +3°C° 0 mm 1 mps 586 mmHg 88%
    21:00 +3°C° 0 mm 1 mps 586 mmHg 89%
    22:00 +3°C° 0 mm 1 mps 586 mmHg 90%
    23:00 +3°C° 0 mm 1 mps 586 mmHg 90%

    30 September, Sunday

    Time Temperature Precipitation Wind Pressure Humidity
    00:00 +3°C° 0 mm 1 mps 586 mmHg 90%
    01:00 +3°C° 0 mm 1 mps 586 mmHg 90%
    02:00 +3°C° 0 mm 1 mps 585 mmHg 91%
    03:00 +3°C° 0 mm 1 mps 585 mmHg 92%
    04:00 +2°C° 0 mm 1 mps 585 mmHg 92%
    05:00 +2°C° 0 mm 1 mps 585 mmHg 91%
    06:00 +3°C° 0 mm 1 mps 585 mmHg 91%
    07:00 +3°C° 0 mm 1 mps 585 mmHg 90%
    08:00 +5°C° 0 mm 1 mps 585 mmHg 78%
    09:00 +7°C° 0 mm 1 mps 586 mmHg 67%
    10:00 +9°C° 0 mm 1 mps 587 mmHg 55%
    11:00 +10°C° 0 mm 1 mps 587 mmHg 51%
    12:00 +10°C° 0 mm 2 mps 588 mmHg 47%
    13:00 +12°C° 0 mm 2 mps 588 mmHg 43%
    14:00 +12°C° 0 mm 2 mps 587 mmHg 46%
    15:00 +10°C° 0 mm 2 mps 587 mmHg 48%
    16:00 +10°C° 0 mm 2 mps 586 mmHg 51%
    17:00 +7°C° 0 mm 2 mps 585 mmHg 63%
    18:00 +6°C° 0 mm 1 mps 584 mmHg 75%
    19:00 +3°C° 0 mm 1 mps 582 mmHg 87%
    20:00 +3°C° 0 mm 1 mps 582 mmHg 89%
    21:00 +2°C° 0 mm 1 mps 582 mmHg 90%
    22:00 +1°C° 0 mm 0 mps 582 mmHg 92%
    23:00 +2°C° 0 mm 1 mps 582 mmHg 92%

    1 October, Monday

    Time Temperature Precipitation Wind Pressure Humidity
    00:00 +2°C° 0 mm 1 mps 581 mmHg 92%
    01:00 +2°C° 0 mm 1 mps 581 mmHg 92%
    02:00 +1°C° 0 mm 1 mps 580 mmHg 92%
    03:00 +1°C° 0 mm 1 mps 580 mmHg 91%
    04:00 +1°C° 0 mm 1 mps 579 mmHg 91%
    05:00 +2°C° 0 mm 1 mps 579 mmHg 90%
    06:00 +2°C° 0 mm 1 mps 580 mmHg 88%
    07:00 +2°C° 0 mm 1 mps 580 mmHg 87%
    08:00 +4°C° 0 mm 1 mps 580 mmHg 78%
    09:00 +6°C° 0 mm 1 mps 581 mmHg 70%
    10:00 +8°C° 0 mm 1 mps 582 mmHg 62%
    11:00 +8°C° 0.1 mm 1 mps 582 mmHg 61%
    12:00 +9°C° 0.1 mm 1 mps 582 mmHg 59%
    13:00 +9°C° 0.1 mm 1 mps 582 mmHg 58%
    14:00 +7°C° 0.3 mm 2 mps 581 mmHg 63%
    15:00 +7°C° 0.3 mm 2 mps 581 mmHg 68%
    16:00 +6°C° 0.3 mm 2 mps 580 mmHg 73%
    17:00 +5°C° 0.8 mm 2 mps 580 mmHg 79%
    18:00 +4°C° 0.8 mm 2 mps 579 mmHg 85%
    19:00 +3°C° 0.8 mm 1 mps 579 mmHg 91%
    20:00 +3°C° 1.2 mm 1 mps 579 mmHg 91%
    21:00 +2°C° 1.2 mm 1 mps 579 mmHg 92%
    22:00 +2°C° 1.2 mm 1 mps 579 mmHg 93%
    23:00 +2°C° 1.2 mm 1 mps 579 mmHg 93%
    Show more